sat.trackr.live / text

‹ back to catalog

STARLINK-4794

NORAD 53853 · 2022-114AM

PAYLOAD ACTIVE UNKNOWN

§ Identity

Operator
Country
US
Launch date
2022-09-19
Launch site
AFETR
Launch vehicle
Mass (kg)
RCS (m²)

Purposes: comms

External: N2YO · Heavens-Above · Gunter

§ Orbital elements

Epoch: 2026-05-25T04:21:57.032640Z

Period
95.44 min
Inclination
53.2165°
Eccentricity
0.0001395
Mean motion
15.08842737 rev/d
Perigee alt
538.8 km
Apogee alt
540.7 km
Semi-major
6,917.9 km
B*
5.7891e-5
RAAN
310.4277°
Arg perigee
87.1602°
Mean anomaly
272.9550°
Rev number
20,452

§ Raw data

STARLINK-47941 53853U 22114AM  26145.18191010  .00000634  00000+0  57891-4 0  99992 53853  53.2165 310.4277 0001395  87.1602 272.9550 15.08842737204522

JSON: /api/v1/satellites/53853 · /tle

For live sub-satellite position, see the globe view (requires WebGL).

§ Visibility from observer

Set your observer location to see the next 7 days of passes ≥ 10°. The values pass through the URL so the page stays shareable.

No JS? Fill the form by hand. The geolocation button needs JavaScript.